Regional Weather Roundup
Issued by NWS

Home | Current Version | Previous Version | Graphics & Text | Print | Product List | Glossary On
Versions: 1 2 3 4 5 6 7 8 9 10 11 12 13 14 15 16 17 18 19 20 21 22 23 24 25 26 27 28 29 30 31 32 33 34 35 36 37 38 39 40 41 42 43 44 45 46 47 48 49 50
000
ASUS43 KDTX 230510
RWRMI
MICHIGAN HOURLY REGIONAL WEATHER ROUNDUP
NATIONAL WEATHER SERVICE DETROIT/PONTIAC MI
100 AM EDT FRI JUN 23 2017

NOTE: "FAIR" INDICATES FEW OR NO CLOUDS BELOW 12,000 FEET WITH NO
SIGNIFICANT WEATHER AND/OR OBSTRUCTION TO VISIBILITY.

MIZ047>049-052>055-059>063-066>070-074>076-081>083-230600-
SOUTHEAST LOWER MICHIGAN

CITY           SKY/WX    TMP DP  RH WIND       PRES   REMARKS
ADRIAN         MOCLDY    73  67  81 SW8       29.80S
ALMA           CLOUDY    73  71  95 S10       29.70F
ANN ARBOR      CLEAR     71  69  93 S6        29.77F
BAD AXE        RAIN      70  70  99 SW6       29.74R
CARO           HVY RAIN  69  68  98 SE7       29.71F
DETROIT CITY   CLOUDY    74  69  85 SW13      29.76F
DETROIT        CLOUDY    73  70  90 S12       29.78S
FLINT          CLOUDY    70  68  93 S5        29.73F
GROSSE ILE     CLEAR     75  68  78 SW10G17   29.77S
HILLSDALE      CLOUDY    72  64  78 SW9       29.79F
HOWELL         CLOUDY    73  67  83 SW9       29.75F

CITY           SKY/WX    TMP DP  RH WIND       PRES   REMARKS
JACKSON        MOCLDY    72  68  87 S8        29.77F
LAMBERTVILLE   MOCLDY    74  66  76 SW7G17    29.79F
LANSING        CLOUDY    75  69  81 S12       29.72F
LAPEER         HVY RAIN  71  69  96 SW10G22   29.75F
MASON          MOCLDY    72  70  93 S6        29.74F
MONROE         CLEAR     74  67  77 SW8G16    29.78S
MT. CLEMENS    PTCLDY    73  73 100 S10       29.73F
PONTIAC        CLOUDY    73  71  93 S7        29.75F
PORT HOPE        N/A     71  68  90 S3        29.69F
PORT HURON     LGT RAIN  72  68  88 S8        29.73F
TRI CITIES     CLOUDY    70  69  97 VRB6      29.71F
MIDLAND        RAIN      69  67  95 W5        29.70S
TROY           MOCLDY    73  69  86 SW8       29.77F
SAGINAW HB     CLOUDY    70  64  83 W10       29.71S
$$
MIZ043>046-050>051-056>058-064>065-071>073-077>080-230600-
SOUTHWEST LOWER MICHIGAN

CITY           SKY/WX    TMP DP  RH WIND       PRES   REMARKS
BATTLE CREEK   CLOUDY    75  69  81 SW16G28   29.75F
BENTON HARBOR  MOCLDY    75  67  76 S9G20     29.72F
BIG RAPIDS     CLOUDY    65  63  92 N3        29.70F
COLDWATER      MOCLDY    73  68  85 SW7       29.78F
FREMONT        CLOUDY    70  69  98 SW6       29.68F
HOLLAND        CLEAR     76  68  76 SW20G28   29.69F
GRAND RAPIDS   PTCLDY    74  72  93 S10       29.69F
IONIA          FAIR      74  70  88 S14G21    29.69F
KALAMAZOO      CLOUDY    76  67  73 S15G22    29.75F
LUDINGTON      CLOUDY    64  64 100 CALM      29.69F
MARSHALL       CLOUDY    73  69  87 S9        29.76F
MUSKEGON       MOCLDY    74  68  81 SW18G31   29.68F
SOUTH HAVEN    PTCLDY    75  69  80 S13G18    29.72F
$$
MIZ016>042-230600-
NORTHERN LOWER MICHIGAN

CITY           SKY/WX    TMP DP  RH WIND       PRES   REMARKS
ALPENA         CLOUDY    67  67 100 CALM      29.69S
BEAVER ISLAND  FOG       63  63 100 W5        29.66S VSB 3/4
BELLAIRE       RAIN      66  64  94 S3        29.69R
CADILLAC       LGT RAIN  64  63  96 NW3       29.72R
CHARLEVOIX     LGT RAIN  64  64 100 S6        29.69F
FRANKFORT      CLOUDY    65  62  88 SW5       29.69F
GAYLORD        LGT RAIN  66  63  90 S7        29.70S
GRAYLING       HVY RAIN  65  64  96 CALM      29.72F
HARBOR SPRINGS LGT RAIN  61  61 100 CALM      29.66F
HOUGHTON LAKE  TSTM      66  63  90 VRB3      29.73R FOG
MANISTEE       RAIN      64  64 100 W5        29.70R
OSCODA         LGT RAIN  71  68  91 W6        29.68S
PELLSTON       LGT RAIN  63  60  90 CALM      29.65F
ROGERS CITY    CLOUDY    65  64  96 SW3       29.68F
TRAVERSE CITY  LGT RAIN  67  64  90 CALM      29.66F
$$
MIZ007>008-015-230600-
EASTERN UPPER MICHIGAN

CITY           SKY/WX    TMP DP  RH WIND       PRES   REMARKS
KINROSS        CLOUDY    61  61 100 CALM      29.66F
MACKINAC ISLAN CLOUDY    61  61 100 SW7       29.65F
NEWBERRY       CLOUDY    62  61  97 SW3       29.64F
S. S. MARIE    MOCLDY    64  62  93 SW3       29.64F
MUNISING         N/A     61  61 100 SW3       29.64F
$$
MIZ004>006-011>014-085-230600-
CENTRAL UPPER MICHIGAN

CITY           SKY/WX    TMP DP  RH WIND       PRES   REMARKS
MANISTIQUE     FOG       58  56  90 CALM      29.64S VSB 3/4
ESCANABA       CLOUDY    64  64 100 W3        29.65F FOG
MENOMINEE      CLOUDY    65  65 100 CALM      29.68F
SAWYER-GWINN   CLEAR     59  58  95 W3        29.66F
$$
MIZ001>003-009>011-084-230600-
WESTERN UPPER MICHIGAN

CITY           SKY/WX    TMP DP  RH WIND       PRES   REMARKS
IRON MOUNTAIN  CLOUDY    62  58  86 W3        29.66F
HOUGHTON       CLOUDY    63  50  62 W9        29.64S
COPPER HARBOR    N/A     67  48  50 W6        29.61F
IRONWOOD       PTCLDY    61  54  77 NW8       29.72R
$$

ABBREVIATIONS USED IN REMARKS
   TC - TEMPERATURE IN CELSIUS
  WCI - WIND CHILL INDEX
   HX - HEAT INDEX
  VSB - VISIBILITY




USA.gov is the U.S. government's official web portal to all federal, state and local government web resources and services.